Time,TemperatureF,DewpointF,PressureIn,WindDirection,WindDirectionDegrees,WindSpeedMPH,WindSpeedGustMPH,Humidity,HourlyPrecipIn,Conditions,Clouds,dailyrainin,SolarRadiationWatts/m^2,SoftwareType,DateUTC
2013-03-09 00:02:00,24.2,15.8,30.04,NNW,344,2.0,4.0,70,0.00,,,0.00,0,Wunderground v.1.15,2013-03-09 07:02:00,
2013-03-09 00:08:00,23.8,15.4,30.04,NNW,340,2.0,5.0,70,0.00,,,0.00,0,Wunderground v.1.15,2013-03-09 07:08:00,
2013-03-09 00:13:00,23.7,15.7,30.04,NNW,340,2.0,3.0,71,0.00,,,0.00,0,Wunderground v.1.15,2013-03-09 07:13:00,
2013-03-09 00:19:00,23.6,15.6,30.04,NNW,333,4.0,4.0,71,0.00,,,0.00,0,Wunderground v.1.15,2013-03-09 07:19:00,
2013-03-09 00:24:00,23.6,15.6,30.04,NNW,333,2.0,5.0,71,0.00,,,0.00,0,Wunderground v.1.15,2013-03-09 07:24:00,
2013-03-09 00:29:00,23.4,15.7,30.04,NW,323,2.0,3.0,72,0.00,,,0.00,0,Wunderground v.1.15,2013-03-09 07:29:00,
2013-03-09 00:35:00,23.3,15.6,30.04,NW,325,1.0,3.0,72,0.00,,,0.00,0,Wunderground v.1.15,2013-03-09 07:35:00,
2013-03-09 00:40:00,23.3,15.6,30.04,NW,325,3.0,3.0,72,0.00,,,0.00,0,Wunderground v.1.15,2013-03-09 07:40:00,
2013-03-09 00:46:00,23.1,15.7,30.04,NNW,329,4.0,5.0,73,0.00,,,0.00,0,Wunderground v.1.15,2013-03-09 07:46:00,
2013-03-09 00:51:00,22.9,15.5,30.04,NNW,329,3.0,3.0,73,0.00,,,0.00,0,Wunderground v.1.15,2013-03-09 07:51:00,
2013-03-09 00:57:00,22.7,15.7,30.04,NNW,329,0.0,3.0,74,0.00,,,0.00,0,Wunderground v.1.15,2013-03-09 07:57:00,
2013-03-09 01:03:00,22.6,15.9,30.05,NNW,329,0.0,1.0,75,0.00,,,0.00,0,Wunderground v.1.15,2013-03-09 08:03:00,
2013-03-09 01:08:00,22.3,15.6,30.05,NNW,329,0.0,1.0,75,0.00,,,0.00,0,Wunderground v.1.15,2013-03-09 08:08:00,
2013-03-09 01:14:00,22.1,15.4,30.05,NNW,329,0.0,0.0,75,0.00,,,0.00,0,Wunderground v.1.15,2013-03-09 08:14:00,
2013-03-09 01:20:00,21.8,15.4,30.06,NNW,329,0.0,0.0,76,0.00,,,0.00,0,Wunderground v.1.15,2013-03-09 08:20:00,
2013-03-09 01:25:00,21.5,15.1,30.06,NNW,328,0.0,0.0,76,0.00,,,0.00,0,Wunderground v.1.15,2013-03-09 08:25:00,
2013-03-09 01:30:00,21.2,14.8,30.06,NNW,329,0.0,0.0,76,0.00,,,0.00,0,Wunderground v.1.15,2013-03-09 08:30:00,
2013-03-09 01:35:00,21.0,14.9,30.06,NNW,329,0.0,0.0,77,0.00,,,0.00,0,Wunderground v.1.15,2013-03-09 08:35:00,
2013-03-09 01:41:00,20.5,14.1,30.06,NNW,329,0.0,0.0,76,0.00,,,0.00,0,Wunderground v.1.15,2013-03-09 08:41:00,
2013-03-09 01:46:00,20.2,13.8,30.06,NNW,329,0.0,0.0,76,0.00,,,0.00,0,Wunderground v.1.15,2013-03-09 08:46:00,
2013-03-09 01:52:00,19.9,13.9,30.07,NNW,329,0.0,0.0,77,0.00,,,0.00,0,Wunderground v.1.15,2013-03-09 08:52:00,
2013-03-09 01:58:00,19.7,13.7,30.07,NNW,329,0.0,0.0,77,0.00,,,0.00,0,Wunderground v.1.15,2013-03-09 08:58:00,
2013-03-09 02:03:00,19.3,13.3,30.07,NNW,329,0.0,0.0,77,0.00,,,0.00,0,Wunderground v.1.15,2013-03-09 09:03:00,
2013-03-09 02:08:00,19.1,13.1,30.07,NNW,329,0.0,0.0,77,0.00,,,0.00,0,Wunderground v.1.15,2013-03-09 09:08:00,
2013-03-09 02:13:00,19.0,13.3,30.07,NNW,329,0.0,0.0,78,0.00,,,0.00,0,Wunderground v.1.15,2013-03-09 09:13:00,
2013-03-09 02:18:00,19.0,13.3,30.07,NNW,329,0.0,0.0,78,0.00,,,0.00,0,Wunderground v.1.15,2013-03-09 09:18:00,
2013-03-09 02:23:00,19.0,13.3,30.07,NNW,329,0.0,0.0,78,0.00,,,0.00,0,Wunderground v.1.15,2013-03-09 09:23:00,
2013-03-09 02:28:00,19.0,13.6,30.07,NNW,327,0.0,0.0,79,0.00,,,0.00,0,Wunderground v.1.15,2013-03-09 09:28:00,
2013-03-09 02:33:00,18.9,13.5,30.08,NNW,329,0.0,0.0,79,0.00,,,0.00,0,Wunderground v.1.15,2013-03-09 09:33:00,
2013-03-09 02:38:00,18.7,13.3,30.08,NNW,329,0.0,0.0,79,0.00,,,0.00,0,Wunderground v.1.15,2013-03-09 09:38:00,
2013-03-09 02:43:00,18.6,13.2,30.08,NNW,329,0.0,0.0,79,0.00,,,0.00,0,Wunderground v.1.15,2013-03-09 09:43:00,
2013-03-09 02:49:00,18.5,13.4,30.08,NNW,329,0.0,0.0,80,0.00,,,0.00,0,Wunderground v.1.15,2013-03-09 09:49:00,
2013-03-09 02:54:00,18.2,13.1,30.08,NNW,329,0.0,0.0,80,0.00,,,0.00,0,Wunderground v.1.15,2013-03-09 09:54:00,
2013-03-09 02:59:00,18.1,13.0,30.08,NNW,329,0.0,0.0,80,0.00,,,0.00,0,Wunderground v.1.15,2013-03-09 09:59:00,
2013-03-09 03:04:00,17.7,12.6,30.08,NNW,329,0.0,0.0,80,0.00,,,0.00,0,Wunderground v.1.15,2013-03-09 10:04:00,
2013-03-09 03:09:00,17.6,12.8,30.08,NNW,329,0.0,0.0,81,0.00,,,0.00,0,Wunderground v.1.15,2013-03-09 10:09:00,
2013-03-09 03:14:00,17.6,12.8,30.08,NNW,329,0.0,0.0,81,0.00,,,0.00,0,Wunderground v.1.15,2013-03-09 10:14:00,
2013-03-09 03:19:00,17.6,12.8,30.08,NNW,329,0.0,1.0,81,0.00,,,0.00,0,Wunderground v.1.15,2013-03-09 10:19:00,
2013-03-09 03:24:00,17.6,12.8,30.08,NNW,329,0.0,0.0,81,0.00,,,0.00,0,Wunderground v.1.15,2013-03-09 10:24:00,
2013-03-09 03:29:00,17.6,13.0,30.08,NNW,329,0.0,2.0,82,0.00,,,0.00,0,Wunderground v.1.15,2013-03-09 10:29:00,
2013-03-09 03:34:00,17.6,13.0,30.08,NNW,329,0.0,0.0,82,0.00,,,0.00,0,Wunderground v.1.15,2013-03-09 10:34:00,
2013-03-09 03:39:00,17.5,12.9,30.08,NNW,329,0.0,0.0,82,0.00,,,0.00,0,Wunderground v.1.15,2013-03-09 10:39:00,
2013-03-09 03:44:00,17.4,12.8,30.08,NNW,329,0.0,0.0,82,0.00,,,0.00,0,Wunderground v.1.15,2013-03-09 10:44:00,
2013-03-09 03:49:00,17.3,12.7,30.09,NNW,329,0.0,0.0,82,0.00,,,0.00,0,Wunderground v.1.15,2013-03-09 10:49:00,
2013-03-09 03:54:00,17.3,12.7,30.09,NNW,329,0.0,0.0,82,0.00,,,0.00,0,Wunderground v.1.15,2013-03-09 10:54:00,
2013-03-09 03:59:00,17.2,12.6,30.09,NNW,329,0.0,0.0,82,0.00,,,0.00,0,Wunderground v.1.15,2013-03-09 10:59:00,
2013-03-09 04:04:00,16.9,12.4,30.09,NNW,329,0.0,0.0,82,0.00,,,0.00,0,Wunderground v.1.15,2013-03-09 11:04:00,
2013-03-09 04:09:00,16.5,12.0,30.09,NNW,329,0.0,3.0,82,0.00,,,0.00,0,Wunderground v.1.15,2013-03-09 11:09:00,
2013-03-09 04:14:00,16.2,11.7,30.09,NNW,329,0.0,0.0,82,0.00,,,0.00,0,Wunderground v.1.15,2013-03-09 11:14:00,
2013-03-09 04:19:00,16.2,11.9,30.10,NNW,329,0.0,0.0,83,0.00,,,0.00,0,Wunderground v.1.15,2013-03-09 11:19:00,
2013-03-09 04:24:00,16.2,11.9,30.10,NNW,329,0.0,0.0,83,0.00,,,0.00,0,Wunderground v.1.15,2013-03-09 11:24:00,
2013-03-09 04:29:00,16.2,11.9,30.10,NNW,329,0.0,0.0,83,0.00,,,0.00,0,Wunderground v.1.15,2013-03-09 11:29:00,
2013-03-09 04:34:00,16.3,12.0,30.11,NNW,329,0.0,0.0,83,0.00,,,0.00,0,Wunderground v.1.15,2013-03-09 11:34:00,
2013-03-09 04:39:00,16.4,12.4,30.11,NNW,329,0.0,0.0,84,0.00,,,0.00,0,Wunderground v.1.15,2013-03-09 11:39:00,
2013-03-09 04:44:00,16.5,12.5,30.11,NNW,329,0.0,1.0,84,0.00,,,0.00,0,Wunderground v.1.15,2013-03-09 11:44:00,
2013-03-09 04:50:00,16.6,12.6,30.11,NNW,329,0.0,0.0,84,0.00,,,0.00,0,Wunderground v.1.15,2013-03-09 11:50:00,
2013-03-09 04:55:00,16.7,12.7,30.11,NNW,329,0.0,0.0,84,0.00,,,0.00,0,Wunderground v.1.15,2013-03-09 11:55:00,
2013-03-09 04:59:00,16.7,12.7,30.11,NNW,329,0.0,0.0,84,0.00,,,0.00,0,Wunderground v.1.15,2013-03-09 11:59:00,
2013-03-09 05:05:00,16.8,12.8,30.11,NNW,329,0.0,0.0,84,0.00,,,0.00,0,Wunderground v.1.15,2013-03-09 12:05:00,
2013-03-09 05:10:00,16.7,12.7,30.11,NNW,329,0.0,0.0,84,0.00,,,0.00,0,Wunderground v.1.15,2013-03-09 12:10:00,
2013-03-09 05:15:00,16.6,12.6,30.11,NNW,329,0.0,2.0,84,0.00,,,0.00,0,Wunderground v.1.15,2013-03-09 12:15:00,
2013-03-09 05:20:00,16.3,12.3,30.12,NNW,329,0.0,0.0,84,0.00,,,0.00,0,Wunderground v.1.15,2013-03-09 12:20:00,
2013-03-09 05:25:00,16.2,12.2,30.12,NNW,329,0.0,0.0,84,0.00,,,0.00,0,Wunderground v.1.15,2013-03-09 12:25:00,
2013-03-09 05:30:00,16.2,12.2,30.12,NNW,329,0.0,0.0,84,0.00,,,0.00,0,Wunderground v.1.15,2013-03-09 12:30:00,
2013-03-09 05:35:00,16.1,12.1,30.13,NNW,328,0.0,3.0,84,0.00,,,0.00,0,Wunderground v.1.15,2013-03-09 12:35:00,
2013-03-09 05:40:00,16.1,12.1,30.13,NNW,329,0.0,1.0,84,0.00,,,0.00,0,Wunderground v.1.15,2013-03-09 12:40:00,
2013-03-09 05:45:00,16.2,12.2,30.13,NNW,329,0.0,3.0,84,0.00,,,0.00,0,Wunderground v.1.15,2013-03-09 12:45:00,
2013-03-09 05:50:00,16.4,12.4,30.13,NNW,330,0.0,0.0,84,0.00,,,0.00,0,Wunderground v.1.15,2013-03-09 12:50:00,
2013-03-09 05:55:00,16.5,12.8,30.13,NW,307,5.0,5.0,85,0.00,,,0.00,0,Wunderground v.1.15,2013-03-09 12:55:00,
2013-03-09 06:00:00,16.4,12.4,30.13,NNE,22,4.0,4.0,84,0.00,,,0.00,0,Wunderground v.1.15,2013-03-09 13:00:00,
2013-03-09 06:05:00,16.4,12.4,30.13,East,79,0.0,4.0,84,0.00,,,0.00,0,Wunderground v.1.15,2013-03-09 13:05:00,
2013-03-09 06:10:00,16.5,12.5,30.13,East,88,3.0,3.0,84,0.00,,,0.00,0,Wunderground v.1.15,2013-03-09 13:10:00,
2013-03-09 06:15:00,17.0,13.3,30.13,ESE,105,0.0,4.0,85,0.00,,,0.00,0,Wunderground v.1.15,2013-03-09 13:15:00,
2013-03-09 06:20:00,17.5,13.5,30.15,ESE,114,4.0,6.0,84,0.00,,,0.00,0,Wunderground v.1.15,2013-03-09 13:20:00,
2013-03-09 06:25:00,17.9,13.9,30.15,ESE,116,0.0,6.0,84,0.00,,,0.00,0,Wunderground v.1.15,2013-03-09 13:25:00,
2013-03-09 06:30:00,18.5,14.5,30.15,ESE,115,1.0,3.0,84,0.00,,,0.00,0,Wunderground v.1.15,2013-03-09 13:30:00,
2013-03-09 06:35:00,18.2,14.2,30.15,ESE,115,2.0,4.0,84,0.00,,,0.00,0,Wunderground v.1.15,2013-03-09 13:35:00,
2013-03-09 06:40:00,18.1,14.1,30.15,ESE,116,0.0,1.0,84,0.00,,,0.00,0,Wunderground v.1.15,2013-03-09 13:40:00,
2013-03-09 06:45:00,18.2,14.2,30.15,ESE,115,0.0,4.0,84,0.00,,,0.00,0,Wunderground v.1.15,2013-03-09 13:45:00,
2013-03-09 06:50:00,18.4,14.1,30.15,ESE,123,0.0,1.0,83,0.00,,,0.00,0,Wunderground v.1.15,2013-03-09 13:50:00,
2013-03-09 06:55:00,18.6,14.3,30.15,ESE,123,0.0,2.0,83,0.00,,,0.00,0,Wunderground v.1.15,2013-03-09 13:55:00,
2013-03-09 07:00:00,18.7,14.4,30.15,SE,134,3.0,4.0,83,0.00,,,0.00,0,Wunderground v.1.15,2013-03-09 14:00:00,
2013-03-09 07:05:00,18.8,14.5,30.16,SE,134,2.0,4.0,83,0.00,,,0.00,5,Wunderground v.1.15,2013-03-09 14:05:00,
2013-03-09 07:10:00,18.6,14.3,30.16,SE,140,4.0,4.0,83,0.00,,,0.00,7,Wunderground v.1.15,2013-03-09 14:10:00,
2013-03-09 07:15:00,18.6,14.3,30.16,SE,143,2.0,5.0,83,0.00,,,0.00,11,Wunderground v.1.15,2013-03-09 14:15:00,
2013-03-09 07:20:00,18.8,14.5,30.16,SE,146,1.0,5.0,83,0.00,,,0.00,12,Wunderground v.1.15,2013-03-09 14:20:00,
2013-03-09 07:25:00,19.4,15.4,30.16,SSE,148,1.0,5.0,84,0.00,,,0.00,16,Wunderground v.1.15,2013-03-09 14:25:00,
2013-03-09 07:30:00,19.7,15.4,30.16,SSE,154,4.0,9.0,83,0.00,,,0.00,18,Wunderground v.1.15,2013-03-09 14:30:00,
2013-03-09 07:35:00,19.7,15.4,30.17,SSE,159,1.0,9.0,83,0.00,,,0.00,21,Wunderground v.1.15,2013-03-09 14:35:00,
2013-03-09 07:40:00,20.0,15.7,30.17,SSE,166,5.0,6.0,83,0.00,,,0.00,28,Wunderground v.1.15,2013-03-09 14:40:00,
2013-03-09 07:45:00,20.2,15.6,30.17,South,187,5.0,7.0,82,0.00,,,0.00,35,Wunderground v.1.15,2013-03-09 14:45:00,
2013-03-09 07:50:00,20.6,16.0,30.18,South,175,1.0,5.0,82,0.00,,,0.00,37,Wunderground v.1.15,2013-03-09 14:50:00,
2013-03-09 07:55:00,20.9,16.3,30.18,South,175,2.0,5.0,82,0.00,,,0.00,40,Wunderground v.1.15,2013-03-09 14:55:00,
2013-03-09 08:00:00,21.3,16.7,30.18,South,175,0.0,2.0,82,0.00,,,0.00,44,Wunderground v.1.15,2013-03-09 15:00:00,
2013-03-09 08:05:00,21.5,16.6,30.19,South,174,3.0,6.0,81,0.00,,,0.00,46,Wunderground v.1.15,2013-03-09 15:05:00,
2013-03-09 08:10:00,21.6,16.7,30.19,SSE,155,0.0,2.0,81,0.00,,,0.00,49,Wunderground v.1.15,2013-03-09 15:10:00,
2013-03-09 08:15:00,22.0,17.1,30.19,SSE,153,0.0,3.0,81,0.00,,,0.00,56,Wunderground v.1.15,2013-03-09 15:15:00,
2013-03-09 08:20:00,22.1,17.2,30.20,SSE,155,1.0,4.0,81,0.00,,,0.00,69,Wunderground v.1.15,2013-03-09 15:20:00,
2013-03-09 08:25:00,22.3,17.4,30.20,SSE,155,0.0,4.0,81,0.00,,,0.00,72,Wunderground v.1.15,2013-03-09 15:25:00,
2013-03-09 08:30:00,22.5,17.5,30.20,SSE,155,0.0,2.0,81,0.00,,,0.00,81,Wunderground v.1.15,2013-03-09 15:30:00,
2013-03-09 08:35:00,22.9,17.9,30.20,SSE,155,1.0,3.0,81,0.00,,,0.00,90,Wunderground v.1.15,2013-03-09 15:35:00,
2013-03-09 08:40:00,23.4,18.1,30.20,SSE,154,0.0,2.0,80,0.00,,,0.00,93,Wunderground v.1.15,2013-03-09 15:40:00,
2013-03-09 08:45:00,23.7,18.4,30.20,SSE,155,0.0,2.0,80,0.00,,,0.00,98,Wunderground v.1.15,2013-03-09 15:45:00,
2013-03-09 08:50:00,23.9,18.6,30.21,SSE,155,0.0,0.0,80,0.00,,,0.00,111,Wunderground v.1.15,2013-03-09 15:50:00,
2013-03-09 08:55:00,24.2,18.9,30.21,SSE,155,0.0,0.0,80,0.00,,,0.00,118,Wunderground v.1.15,2013-03-09 15:55:00,
2013-03-09 09:00:00,24.6,19.0,30.21,SSE,155,0.0,0.0,79,0.00,,,0.00,130,Wunderground v.1.15,2013-03-09 16:00:00,
2013-03-09 09:05:00,24.9,19.3,30.20,SSE,155,0.0,0.0,79,0.00,,,0.00,142,Wunderground v.1.15,2013-03-09 16:05:00,
2013-03-09 09:10:00,25.4,19.8,30.20,SSE,155,0.0,0.0,79,0.00,,,0.00,156,Wunderground v.1.15,2013-03-09 16:10:00,
2013-03-09 09:16:00,26.2,20.3,30.20,SSE,154,0.0,0.0,78,0.00,,,0.00,162,Wunderground v.1.15,2013-03-09 16:16:00,
2013-03-09 09:21:00,26.8,20.6,30.20,SSE,155,0.0,0.0,77,0.00,,,0.00,172,Wunderground v.1.15,2013-03-09 16:21:00,
2013-03-09 09:26:00,27.4,21.1,30.20,SSE,149,0.0,2.0,77,0.00,,,0.00,174,Wunderground v.1.15,2013-03-09 16:26:00,
2013-03-09 09:31:00,28.6,22.0,30.20,NNE,14,2.0,5.0,76,0.00,,,0.00,190,Wunderground v.1.15,2013-03-09 16:31:00,
2013-03-09 09:36:00,30.3,22.7,30.21,WNW,300,12.0,16.0,73,0.00,,,0.00,193,Wunderground v.1.15,2013-03-09 16:36:00,
2013-03-09 09:41:00,32.3,22.6,30.21,NW,313,8.0,12.0,67,0.00,,,0.00,178,Wunderground v.1.15,2013-03-09 16:41:00,
2013-03-09 09:46:00,33.3,22.1,30.21,NW,309,12.0,15.0,63,0.00,,,0.00,160,Wunderground v.1.15,2013-03-09 16:46:00,
2013-03-09 09:51:00,33.6,20.8,30.21,WNW,303,9.0,17.0,59,0.00,,,0.00,183,Wunderground v.1.15,2013-03-09 16:51:00,
2013-03-09 09:56:00,33.7,20.5,30.21,NW,314,13.0,21.0,58,0.00,,,0.00,165,Wunderground v.1.15,2013-03-09 16:56:00,
2013-03-09 10:01:00,33.8,19.3,30.21,WNW,303,18.0,20.0,55,0.00,,,0.00,185,Wunderground v.1.15,2013-03-09 17:01:00,
2013-03-09 10:06:00,33.9,19.4,30.21,NNW,333,12.0,20.0,55,0.00,,,0.00,192,Wunderground v.1.15,2013-03-09 17:06:00,
2013-03-09 10:11:00,34.1,19.2,30.21,WNW,296,10.0,15.0,54,0.00,,,0.00,163,Wunderground v.1.15,2013-03-09 17:11:00,
2013-03-09 10:16:00,34.1,19.2,30.21,WNW,302,11.0,17.0,54,0.00,,,0.00,211,Wunderground v.1.15,2013-03-09 17:16:00,
2013-03-09 10:21:00,34.4,18.6,30.22,NNW,340,11.0,20.0,52,0.00,,,0.00,174,Wunderground v.1.15,2013-03-09 17:21:00,
2013-03-09 10:26:00,34.2,18.8,30.22,NNW,343,8.0,20.0,53,0.00,,,0.00,163,Wunderground v.1.15,2013-03-09 17:26:00,
2013-03-09 10:31:00,35.6,21.0,30.22,NNW,345,14.0,15.0,55,0.00,,,0.00,589,Wunderground v.1.15,2013-03-09 17:31:00,
2013-03-09 10:36:00,36.5,20.1,30.21,NNW,327,17.0,17.0,51,0.00,,,0.00,591,Wunderground v.1.15,2013-03-09 17:36:00,
2013-03-09 10:41:00,37.0,19.6,30.21,NW,307,10.0,19.0,49,0.00,,,0.00,596,Wunderground v.1.15,2013-03-09 17:41:00,
2013-03-09 10:46:00,37.3,19.9,30.21,NNE,16,9.0,21.0,49,0.00,,,0.00,598,Wunderground v.1.15,2013-03-09 17:46:00,
2013-03-09 10:51:00,37.6,19.2,30.22,NNW,338,17.0,20.0,47,0.00,,,0.00,605,Wunderground v.1.15,2013-03-09 17:51:00,
2013-03-09 10:56:00,37.4,19.0,30.22,NNW,342,10.0,20.0,47,0.00,,,0.00,615,Wunderground v.1.15,2013-03-09 17:56:00,
2013-03-09 11:01:00,38.1,19.6,30.22,NW,326,13.0,16.0,47,0.00,,,0.00,661,Wunderground v.1.15,2013-03-09 18:01:00,
2013-03-09 11:06:00,38.3,19.8,30.22,NNW,336,15.0,20.0,47,0.00,,,0.00,640,Wunderground v.1.15,2013-03-09 18:06:00,
2013-03-09 11:11:00,37.7,19.3,30.22,North,355,11.0,19.0,47,0.00,,,0.00,636,Wunderground v.1.15,2013-03-09 18:11:00,
2013-03-09 11:16:00,38.3,19.8,30.22,NW,323,17.0,19.0,47,0.00,,,0.00,638,Wunderground v.1.15,2013-03-09 18:16:00,
2013-03-09 11:21:00,38.4,20.4,30.23,NNW,338,13.0,17.0,48,0.00,,,0.00,638,Wunderground v.1.15,2013-03-09 18:21:00,
2013-03-09 11:26:00,38.5,20.0,30.23,NNW,333,14.0,21.0,47,0.00,,,0.00,640,Wunderground v.1.15,2013-03-09 18:26:00,
2013-03-09 11:31:00,38.2,19.7,30.23,NNW,348,6.0,20.0,47,0.00,,,0.00,643,Wunderground v.1.15,2013-03-09 18:31:00,
2013-03-09 11:36:00,38.3,19.8,30.23,North,10,12.0,21.0,47,0.00,,,0.00,647,Wunderground v.1.15,2013-03-09 18:36:00,
2013-03-09 11:41:00,38.7,20.7,30.23,NNW,327,10.0,13.0,48,0.00,,,0.00,650,Wunderground v.1.15,2013-03-09 18:41:00,
2013-03-09 11:46:00,39.5,20.9,30.23,NNE,19,5.0,15.0,47,0.00,,,0.00,657,Wunderground v.1.15,2013-03-09 18:46:00,
2013-03-09 11:51:00,39.5,20.4,30.22,NNW,347,13.0,17.0,46,0.00,,,0.00,661,Wunderground v.1.15,2013-03-09 18:51:00,
2013-03-09 11:56:00,39.3,20.2,30.22,NW,317,16.0,18.0,46,0.00,,,0.00,661,Wunderground v.1.15,2013-03-09 18:56:00,
2013-03-09 12:01:00,39.5,20.4,30.22,North,351,9.0,16.0,46,0.00,,,0.00,663,Wunderground v.1.15,2013-03-09 19:01:00,
2013-03-09 12:06:00,40.1,21.5,30.21,NNW,344,14.0,16.0,47,0.00,,,0.00,666,Wunderground v.1.15,2013-03-09 19:06:00,
2013-03-09 12:11:00,40.5,20.8,30.21,NW,325,10.0,16.0,45,0.00,,,0.00,668,Wunderground v.1.15,2013-03-09 19:11:00,
2013-03-09 12:16:00,39.6,21.0,30.21,North,9,9.0,19.0,47,0.00,,,0.00,668,Wunderground v.1.15,2013-03-09 19:16:00,
2013-03-09 12:21:00,39.8,21.2,30.21,North,9,5.0,16.0,47,0.00,,,0.00,668,Wunderground v.1.15,2013-03-09 19:21:00,
2013-03-09 12:26:00,39.9,21.3,30.21,NNW,341,8.0,21.0,47,0.00,,,0.00,670,Wunderground v.1.15,2013-03-09 19:26:00,
2013-03-09 12:31:00,40.9,21.7,30.21,NNW,344,14.0,16.0,46,0.00,,,0.00,673,Wunderground v.1.15,2013-03-09 19:31:00,
2013-03-09 12:36:00,40.5,21.3,30.21,NNW,346,9.0,20.0,46,0.00,,,0.00,673,Wunderground v.1.15,2013-03-09 19:36:00,
2013-03-09 12:41:00,40.9,21.7,30.21,WNW,299,16.0,18.0,46,0.00,,,0.00,670,Wunderground v.1.15,2013-03-09 19:41:00,
2013-03-09 12:46:00,40.7,21.5,30.21,NW,323,10.0,18.0,46,0.00,,,0.00,673,Wunderground v.1.15,2013-03-09 19:46:00,
2013-03-09 12:51:00,41.3,22.1,30.20,NNW,340,10.0,15.0,46,0.00,,,0.00,673,Wunderground v.1.15,2013-03-09 19:51:00,
2013-03-09 12:56:00,41.0,21.3,30.20,NNW,340,9.0,19.0,45,0.00,,,0.00,666,Wunderground v.1.15,2013-03-09 19:56:00,
2013-03-09 13:01:00,41.2,21.4,30.20,NNW,334,12.0,19.0,45,0.00,,,0.00,663,Wunderground v.1.15,2013-03-09 20:01:00,
2013-03-09 13:06:00,41.2,21.4,30.20,NNW,346,3.0,19.0,45,0.00,,,0.00,663,Wunderground v.1.15,2013-03-09 20:06:00,
2013-03-09 13:11:00,41.4,21.6,30.20,NNW,338,11.0,18.0,45,0.00,,,0.00,656,Wunderground v.1.15,2013-03-09 20:11:00,
2013-03-09 13:17:00,41.5,21.7,30.20,West,280,8.0,18.0,45,0.00,,,0.00,647,Wunderground v.1.15,2013-03-09 20:17:00,
2013-03-09 13:22:00,41.9,22.1,30.20,North,9,7.0,15.0,45,0.00,,,0.00,640,Wunderground v.1.15,2013-03-09 20:22:00,
2013-03-09 13:27:00,41.6,21.8,30.20,NNW,333,9.0,20.0,45,0.00,,,0.00,647,Wunderground v.1.15,2013-03-09 20:27:00,
2013-03-09 13:32:00,41.8,22.5,30.20,NNW,327,15.0,18.0,46,0.00,,,0.00,642,Wunderground v.1.15,2013-03-09 20:32:00,
2013-03-09 13:37:00,42.0,22.7,30.20,NNW,339,16.0,19.0,46,0.00,,,0.00,638,Wunderground v.1.15,2013-03-09 20:37:00,
2013-03-09 13:42:00,42.0,22.2,30.20,NW,304,11.0,14.0,45,0.00,,,0.00,633,Wunderground v.1.15,2013-03-09 20:42:00,
2013-03-09 13:47:00,42.2,21.8,30.20,North,350,9.0,16.0,44,0.00,,,0.00,633,Wunderground v.1.15,2013-03-09 20:47:00,
2013-03-09 13:52:00,42.5,23.2,30.20,NNW,338,6.0,13.0,46,0.00,,,0.00,563,Wunderground v.1.15,2013-03-09 20:52:00,
2013-03-09 13:57:00,42.9,22.5,30.20,North,350,6.0,15.0,44,0.00,,,0.00,610,Wunderground v.1.15,2013-03-09 20:57:00,
2013-03-09 14:02:00,43.1,22.6,30.20,NW,306,7.0,15.0,44,0.00,,,0.00,606,Wunderground v.1.15,2013-03-09 21:02:00,
2013-03-09 14:07:00,42.7,22.3,30.20,NNW,342,10.0,17.0,44,0.00,,,0.00,605,Wunderground v.1.15,2013-03-09 21:07:00,
2013-03-09 14:12:00,42.6,22.2,30.20,NNE,12,5.0,16.0,44,0.00,,,0.00,596,Wunderground v.1.15,2013-03-09 21:12:00,
2013-03-09 14:17:00,43.2,23.3,30.20,NNW,343,6.0,16.0,45,0.00,,,0.00,587,Wunderground v.1.15,2013-03-09 21:17:00,
2013-03-09 14:22:00,43.6,23.1,30.20,NNW,347,13.0,18.0,44,0.00,,,0.00,577,Wunderground v.1.15,2013-03-09 21:22:00,
2013-03-09 14:27:00,43.6,23.6,30.20,NNE,16,8.0,18.0,45,0.00,,,0.00,571,Wunderground v.1.15,2013-03-09 21:27:00,
2013-03-09 14:32:00,43.8,23.3,30.20,NNE,13,11.0,11.0,44,0.00,,,0.00,547,Wunderground v.1.15,2013-03-09 21:32:00,
2013-03-09 14:37:00,44.2,23.1,30.20,NNE,25,8.0,14.0,43,0.00,,,0.00,550,Wunderground v.1.15,2013-03-09 21:37:00,
2013-03-09 14:42:00,43.7,22.6,30.20,WNW,295,9.0,19.0,43,0.00,,,0.00,545,Wunderground v.1.15,2013-03-09 21:42:00,
2013-03-09 14:47:00,43.9,22.8,30.20,NW,311,5.0,19.0,43,0.00,,,0.00,536,Wunderground v.1.15,2013-03-09 21:47:00,
2013-03-09 14:52:00,43.7,22.6,30.20,NNW,333,11.0,17.0,43,0.00,,,0.00,527,Wunderground v.1.15,2013-03-09 21:52:00,
2013-03-09 14:57:00,43.7,22.6,30.20,NW,306,14.0,18.0,43,0.00,,,0.00,522,Wunderground v.1.15,2013-03-09 21:57:00,
2013-03-09 15:02:00,43.4,22.9,30.20,North,5,8.0,14.0,44,0.00,,,0.00,508,Wunderground v.1.15,2013-03-09 22:02:00,
2013-03-09 15:07:00,44.2,23.6,30.20,NNE,19,4.0,14.0,44,0.00,,,0.00,496,Wunderground v.1.15,2013-03-09 22:07:00,
2013-03-09 15:12:00,43.8,22.2,30.20,NNW,336,6.0,19.0,42,0.00,,,0.00,487,Wunderground v.1.15,2013-03-09 22:12:00,
2013-03-09 15:17:00,44.0,22.9,30.21,North,349,4.0,19.0,43,0.00,,,0.00,473,Wunderground v.1.15,2013-03-09 22:17:00,
2013-03-09 15:22:00,44.4,22.7,30.21,NW,315,10.0,20.0,42,0.00,,,0.00,462,Wunderground v.1.15,2013-03-09 22:22:00,
2013-03-09 15:27:00,44.1,22.4,30.21,NW,325,8.0,20.0,42,0.00,,,0.00,454,Wunderground v.1.15,2013-03-09 22:27:00,
2013-03-09 15:32:00,44.3,23.2,30.21,North,360,6.0,13.0,43,0.00,,,0.00,441,Wunderground v.1.15,2013-03-09 22:32:00,
2013-03-09 15:37:00,44.6,22.9,30.21,NW,323,10.0,17.0,42,0.00,,,0.00,429,Wunderground v.1.15,2013-03-09 22:37:00,
2013-03-09 15:42:00,44.5,22.8,30.21,NNW,327,8.0,15.0,42,0.00,,,0.00,397,Wunderground v.1.15,2013-03-09 22:42:00,
2013-03-09 15:47:00,44.1,22.4,30.22,North,355,15.0,17.0,42,0.00,,,0.00,403,Wunderground v.1.15,2013-03-09 22:47:00,
2013-03-09 15:52:00,43.7,22.1,30.22,NNW,348,10.0,16.0,42,0.00,,,0.00,390,Wunderground v.1.15,2013-03-09 22:52:00,
2013-03-09 15:57:00,43.7,22.6,30.22,NW,311,17.0,18.0,43,0.00,,,0.00,332,Wunderground v.1.15,2013-03-09 22:57:00,
2013-03-09 16:02:00,43.7,22.1,30.22,NNW,341,14.0,18.0,42,0.00,,,0.00,343,Wunderground v.1.15,2013-03-09 23:02:00,
2013-03-09 16:07:00,43.5,21.9,30.22,NW,311,9.0,18.0,42,0.00,,,0.00,329,Wunderground v.1.15,2013-03-09 23:07:00,
2013-03-09 16:12:00,43.4,22.4,30.22,NNW,334,8.0,19.0,43,0.00,,,0.00,315,Wunderground v.1.15,2013-03-09 23:12:00,
2013-03-09 16:17:00,43.6,22.5,30.22,NW,324,12.0,19.0,43,0.00,,,0.00,299,Wunderground v.1.15,2013-03-09 23:17:00,
2013-03-09 16:22:00,43.7,22.6,30.22,NW,325,11.0,18.0,43,0.00,,,0.00,297,Wunderground v.1.15,2013-03-09 23:22:00,
2013-03-09 16:27:00,43.5,22.5,30.22,NNW,341,16.0,20.0,43,0.00,,,0.00,287,Wunderground v.1.15,2013-03-09 23:27:00,
2013-03-09 16:32:00,43.8,22.7,30.23,NNW,342,14.0,17.0,43,0.00,,,0.00,267,Wunderground v.1.15,2013-03-09 23:32:00,
2013-03-09 16:37:00,43.9,22.3,30.23,NNW,337,16.0,17.0,42,0.00,,,0.00,255,Wunderground v.1.15,2013-03-09 23:37:00,
2013-03-09 16:42:00,43.7,22.1,30.23,NW,326,6.0,20.0,42,0.00,,,0.00,246,Wunderground v.1.15,2013-03-09 23:42:00,
2013-03-09 16:47:00,43.6,22.5,30.24,NNW,334,13.0,20.0,43,0.00,,,0.00,237,Wunderground v.1.15,2013-03-09 23:47:00,
2013-03-09 16:52:00,43.9,22.8,30.24,NNW,340,11.0,14.0,43,0.00,,,0.00,218,Wunderground v.1.15,2013-03-09 23:52:00,
2013-03-09 16:57:00,43.8,22.7,30.24,NNW,340,11.0,16.0,43,0.00,,,0.00,199,Wunderground v.1.15,2013-03-09 23:57:00,
2013-03-09 17:03:00,43.3,22.3,30.24,NNW,337,8.0,18.0,43,0.00,,,0.00,192,Wunderground v.1.15,2013-03-10 00:03:00,
2013-03-09 17:08:00,43.0,22.0,30.24,NW,317,15.0,18.0,43,0.00,,,0.00,174,Wunderground v.1.15,2013-03-10 00:08:00,
2013-03-09 17:13:00,42.5,22.1,30.24,NNW,343,14.0,18.0,44,0.00,,,0.00,35,Wunderground v.1.15,2013-03-10 00:13:00,
2013-03-09 17:18:00,42.2,22.4,30.25,North,349,15.0,18.0,45,0.00,,,0.00,37,Wunderground v.1.15,2013-03-10 00:18:00,
2013-03-09 17:23:00,42.0,22.7,30.25,North,360,8.0,14.0,46,0.00,,,0.00,51,Wunderground v.1.15,2013-03-10 00:23:00,
2013-03-09 17:28:00,42.0,22.7,30.25,NNW,348,11.0,16.0,46,0.00,,,0.00,104,Wunderground v.1.15,2013-03-10 00:28:00,
2013-03-09 17:33:00,42.0,22.7,30.26,North,350,14.0,18.0,46,0.00,,,0.00,69,Wunderground v.1.15,2013-03-10 00:33:00,
2013-03-09 17:38:00,41.5,22.2,30.26,North,355,9.0,18.0,46,0.00,,,0.00,70,Wunderground v.1.15,2013-03-10 00:38:00,
2013-03-09 17:43:00,41.3,22.6,30.26,NNW,338,13.0,15.0,47,0.00,,,0.00,58,Wunderground v.1.15,2013-03-10 00:43:00,
2013-03-09 17:48:00,41.0,22.8,30.26,NNW,342,8.0,15.0,48,0.00,,,0.00,40,Wunderground v.1.15,2013-03-10 00:48:00,
2013-03-09 17:53:00,40.7,22.5,30.26,North,360,8.0,13.0,48,0.00,,,0.00,37,Wunderground v.1.15,2013-03-10 00:53:00,
2013-03-09 17:58:00,40.4,22.7,30.26,NNE,17,4.0,13.0,49,0.00,,,0.00,21,Wunderground v.1.15,2013-03-10 00:58:00,
2013-03-09 18:03:00,40.0,22.8,30.26,North,349,5.0,10.0,50,0.00,,,0.00,16,Wunderground v.1.15,2013-03-10 01:03:00,
2013-03-09 18:08:00,39.4,22.8,30.26,North,355,3.0,11.0,51,0.00,,,0.00,14,Wunderground v.1.15,2013-03-10 01:08:00,
2013-03-09 18:13:00,39.1,22.5,30.26,North,360,0.0,9.0,51,0.00,,,0.00,12,Wunderground v.1.15,2013-03-10 01:13:00,
2013-03-09 18:18:00,38.7,22.6,30.27,NNW,344,6.0,10.0,52,0.00,,,0.00,11,Wunderground v.1.15,2013-03-10 01:18:00,
2013-03-09 18:23:00,38.4,22.7,30.27,North,5,4.0,10.0,53,0.00,,,0.00,7,Wunderground v.1.15,2013-03-10 01:23:00,
2013-03-09 18:28:00,38.2,22.6,30.27,North,355,3.0,10.0,53,0.00,,,0.00,5,Wunderground v.1.15,2013-03-10 01:28:00,
2013-03-09 18:34:00,37.8,22.6,30.28,North,355,3.0,5.0,54,0.00,,,0.00,0,Wunderground v.1.15,2013-03-10 01:34:00,
2013-03-09 18:39:00,37.2,22.5,30.28,North,5,4.0,9.0,55,0.00,,,0.00,0,Wunderground v.1.15,2013-03-10 01:39:00,
2013-03-09 18:43:00,36.8,22.6,30.28,North,360,1.0,8.0,56,0.00,,,0.00,0,Wunderground v.1.15,2013-03-10 01:43:00,
2013-03-09 18:48:00,36.4,22.6,30.27,North,360,2.0,8.0,57,0.00,,,0.00,0,Wunderground v.1.15,2013-03-10 01:48:00,
2013-03-09 18:54:00,35.9,22.5,30.27,NNW,346,4.0,8.0,58,0.00,,,0.00,0,Wunderground v.1.15,2013-03-10 01:54:00,
2013-03-09 18:59:00,35.7,22.8,30.27,NNW,345,5.0,8.0,59,0.00,,,0.00,0,Wunderground v.1.15,2013-03-10 01:59:00,
2013-03-09 19:04:00,35.1,22.2,30.28,NNW,345,0.0,3.0,59,0.00,,,0.00,0,Wunderground v.1.15,2013-03-10 02:04:00,
2013-03-09 19:09:00,34.7,22.2,30.28,NNW,346,0.0,4.0,60,0.00,,,0.00,0,Wunderground v.1.15,2013-03-10 02:09:00,
2013-03-09 19:15:00,34.4,21.9,30.28,NNW,346,0.0,3.0,60,0.00,,,0.00,0,Wunderground v.1.15,2013-03-10 02:15:00,
2013-03-09 19:20:00,34.3,22.2,30.28,North,349,1.0,2.0,61,0.00,,,0.00,0,Wunderground v.1.15,2013-03-10 02:20:00,
2013-03-09 19:25:00,34.1,22.4,30.28,North,350,2.0,3.0,62,0.00,,,0.00,0,Wunderground v.1.15,2013-03-10 02:25:00,
2013-03-09 19:30:00,33.7,22.1,30.28,North,351,0.0,3.0,62,0.00,,,0.00,0,Wunderground v.1.15,2013-03-10 02:30:00,
2013-03-09 19:35:00,33.4,22.1,30.29,North,355,3.0,4.0,63,0.00,,,0.00,0,Wunderground v.1.15,2013-03-10 02:35:00,
2013-03-09 19:40:00,33.2,22.3,30.29,North,5,3.0,6.0,64,0.00,,,0.00,0,Wunderground v.1.15,2013-03-10 02:40:00,
2013-03-09 19:45:00,33.0,22.1,30.29,NNE,19,2.0,6.0,64,0.00,,,0.00,0,Wunderground v.1.15,2013-03-10 02:45:00,
2013-03-09 19:50:00,33.0,22.5,30.29,NE,40,3.0,4.0,65,0.00,,,0.00,0,Wunderground v.1.15,2013-03-10 02:50:00,
2013-03-09 19:55:00,33.2,22.3,30.29,NNE,22,4.0,9.0,64,0.00,,,0.00,0,Wunderground v.1.15,2013-03-10 02:55:00,
2013-03-09 20:00:00,33.2,22.3,30.29,NNE,12,0.0,2.0,64,0.00,,,0.00,0,Wunderground v.1.15,2013-03-10 03:00:00,
2013-03-09 20:05:00,33.0,22.1,30.30,NNE,12,0.0,4.0,64,0.00,,,0.00,0,Wunderground v.1.15,2013-03-10 03:05:00,
2013-03-09 20:10:00,32.3,21.8,30.30,NNW,331,2.0,3.0,65,0.00,,,0.00,0,Wunderground v.1.15,2013-03-10 03:10:00,
2013-03-09 20:15:00,31.7,21.6,30.30,North,9,0.0,4.0,66,0.00,,,0.00,0,Wunderground v.1.15,2013-03-10 03:15:00,
2013-03-09 20:20:00,31.8,22.1,30.30,North,5,0.0,2.0,67,0.00,,,0.00,0,Wunderground v.1.15,2013-03-10 03:20:00,
2013-03-09 20:25:00,31.8,22.1,30.30,North,11,0.0,4.0,67,0.00,,,0.00,0,Wunderground v.1.15,2013-03-10 03:25:00,
2013-03-09 20:30:00,31.5,21.8,30.30,North,11,0.0,1.0,67,0.00,,,0.00,0,Wunderground v.1.15,2013-03-10 03:30:00,
2013-03-09 20:35:00,31.2,21.9,30.31,North,11,1.0,1.0,68,0.00,,,0.00,0,Wunderground v.1.15,2013-03-10 03:35:00,
2013-03-09 20:40:00,31.2,21.9,30.31,North,11,1.0,2.0,68,0.00,,,0.00,0,Wunderground v.1.15,2013-03-10 03:40:00,
2013-03-09 20:45:00,31.1,21.8,30.31,North,11,0.0,3.0,68,0.00,,,0.00,0,Wunderground v.1.15,2013-03-10 03:45:00,
2013-03-09 20:50:00,31.3,22.3,30.32,North,360,0.0,2.0,69,0.00,,,0.00,0,Wunderground v.1.15,2013-03-10 03:50:00,
2013-03-09 20:55:00,31.6,22.2,30.32,East,97,2.0,7.0,68,0.00,,,0.00,0,Wunderground v.1.15,2013-03-10 03:55:00,
2013-03-09 21:00:00,32.3,22.6,30.32,East,87,2.0,4.0,67,0.00,,,0.00,0,Wunderground v.1.15,2013-03-10 04:00:00,
2013-03-09 21:05:00,32.6,22.8,30.32,East,86,2.0,4.0,67,0.00,,,0.00,0,Wunderground v.1.15,2013-03-10 04:05:00,
2013-03-09 21:10:00,32.4,22.7,30.32,East,86,0.0,1.0,67,0.00,,,0.00,0,Wunderground v.1.15,2013-03-10 04:10:00,
2013-03-09 21:15:00,32.1,22.0,30.32,East,86,0.0,1.0,66,0.00,,,0.00,0,Wunderground v.1.15,2013-03-10 04:15:00,
2013-03-09 21:20:00,31.7,22.0,30.33,East,86,0.0,0.0,67,0.00,,,0.00,0,Wunderground v.1.15,2013-03-10 04:20:00,
2013-03-09 21:25:00,31.2,22.2,30.33,East,86,0.0,0.0,69,0.00,,,0.00,0,Wunderground v.1.15,2013-03-10 04:25:00,
2013-03-09 21:30:00,30.8,22.2,30.33,East,86,0.0,2.0,70,0.00,,,0.00,0,Wunderground v.1.15,2013-03-10 04:30:00,
2013-03-09 21:35:00,31.2,22.5,30.34,ENE,59,1.0,5.0,70,0.00,,,0.00,0,Wunderground v.1.15,2013-03-10 04:35:00,
2013-03-09 21:40:00,32.1,22.7,30.34,North,5,3.0,5.0,68,0.00,,,0.00,0,Wunderground v.1.15,2013-03-10 04:40:00,
2013-03-09 21:45:00,32.9,23.1,30.34,NNE,28,0.0,5.0,67,0.00,,,0.00,0,Wunderground v.1.15,2013-03-10 04:45:00,
2013-03-09 21:50:00,32.6,22.5,30.34,NNE,28,0.0,1.0,66,0.00,,,0.00,0,Wunderground v.1.15,2013-03-10 04:50:00,
2013-03-09 21:55:00,32.3,22.2,30.34,NNE,28,0.0,1.0,66,0.00,,,0.00,0,Wunderground v.1.15,2013-03-10 04:55:00,
2013-03-09 22:00:00,31.8,21.7,30.34,NNE,28,0.0,1.0,66,0.00,,,0.00,0,Wunderground v.1.15,2013-03-10 05:00:00,
2013-03-09 22:05:00,31.3,21.6,30.34,NNE,26,0.0,1.0,67,0.00,,,0.00,0,Wunderground v.1.15,2013-03-10 05:05:00,
2013-03-09 22:10:00,30.6,21.3,30.34,NNE,27,1.0,2.0,68,0.00,,,0.00,0,Wunderground v.1.15,2013-03-10 05:10:00,
2013-03-09 22:15:00,29.8,20.9,30.34,NNE,27,1.0,2.0,69,0.00,,,0.00,0,Wunderground v.1.15,2013-03-10 05:15:00,
2013-03-09 22:20:00,29.2,20.6,30.34,NNE,26,0.0,1.0,70,0.00,,,0.00,0,Wunderground v.1.15,2013-03-10 05:20:00,
2013-03-09 22:25:00,28.9,20.7,30.34,NNE,27,1.0,3.0,71,0.00,,,0.00,0,Wunderground v.1.15,2013-03-10 05:25:00,
2013-03-09 22:30:00,28.4,20.5,30.34,NNE,27,0.0,0.0,72,0.00,,,0.00,0,Wunderground v.1.15,2013-03-10 05:30:00,
2013-03-09 22:35:00,28.0,20.5,30.34,NNE,26,0.0,3.0,73,0.00,,,0.00,0,Wunderground v.1.15,2013-03-10 05:35:00,
2013-03-09 22:40:00,27.6,20.1,30.34,NNE,26,0.0,0.0,73,0.00,,,0.00,0,Wunderground v.1.15,2013-03-10 05:40:00,
2013-03-09 22:45:00,27.2,20.0,30.34,NNE,26,0.0,0.0,74,0.00,,,0.00,0,Wunderground v.1.15,2013-03-10 05:45:00,
2013-03-09 22:50:00,26.8,19.6,30.34,NNE,26,0.0,0.0,74,0.00,,,0.00,0,Wunderground v.1.15,2013-03-10 05:50:00,
2013-03-09 22:55:00,26.3,19.1,30.34,NNE,25,0.0,2.0,74,0.00,,,0.00,0,Wunderground v.1.15,2013-03-10 05:55:00,
2013-03-09 23:00:00,26.1,19.3,30.34,NNE,25,0.0,0.0,75,0.00,,,0.00,0,Wunderground v.1.15,2013-03-10 06:00:00,
2013-03-09 23:05:00,25.2,18.1,30.35,NNE,22,2.0,4.0,74,0.00,,,0.00,0,Wunderground v.1.15,2013-03-10 06:05:00,
2013-03-09 23:10:00,24.7,18.2,30.35,NNE,22,0.0,1.0,76,0.00,,,0.00,0,Wunderground v.1.15,2013-03-10 06:10:00,
2013-03-09 23:15:00,24.7,18.5,30.35,NNE,22,0.0,1.0,77,0.00,,,0.00,0,Wunderground v.1.15,2013-03-10 06:15:00,
2013-03-09 23:20:00,24.5,18.3,30.35,NNE,22,0.0,0.0,77,0.00,,,0.00,0,Wunderground v.1.15,2013-03-10 06:20:00,
2013-03-09 23:25:00,24.3,18.1,30.35,NNE,22,0.0,0.0,77,0.00,,,0.00,0,Wunderground v.1.15,2013-03-10 06:25:00,
2013-03-09 23:30:00,24.3,18.4,30.35,NNE,22,0.0,0.0,78,0.00,,,0.00,0,Wunderground v.1.15,2013-03-10 06:30:00,
2013-03-09 23:35:00,24.2,18.3,30.35,NNE,22,0.0,1.0,78,0.00,,,0.00,0,Wunderground v.1.15,2013-03-10 06:35:00,
2013-03-09 23:40:00,23.9,18.0,30.35,NNE,22,0.0,0.0,78,0.00,,,0.00,0,Wunderground v.1.15,2013-03-10 06:40:00,
2013-03-09 23:45:00,23.8,18.2,30.35,NNE,22,0.0,0.0,79,0.00,,,0.00,0,Wunderground v.1.15,2013-03-10 06:45:00,
2013-03-09 23:50:00,23.7,18.1,30.36,NNE,22,0.0,0.0,79,0.00,,,0.00,0,Wunderground v.1.15,2013-03-10 06:50:00,
2013-03-09 23:55:00,23.3,17.7,30.36,NNE,22,0.0,0.0,79,0.00,,,0.00,0,Wunderground v.1.15,2013-03-10 06:55:00,